Temperature
17 17 17 17 17 17 17 16 16 15 15 15 15 15 15 15 15 15 15 14 14 14 14 14 14 13 13 13 13 13 12 12 12 12 12 11 11 11
17 17 17 17 17 17 16 16 16 16 15 15 15 15 14 14 14 14 14 14 14 14 13 13 13 13 13 12 12 12 12 12 12 11 11 11 10 10
17 16 16 16 16 16 16 16 16 16 15 15 14 14 14 14 14 14 13 13 13 13 13 13 12 12 12 12 12 11 11 11 11 10 10 10 10 10
16 16 16 16 16 16 16 16 16 15 15 15 14 14 13 13 13 13 13 12 12 12 12 12 12 11 11 11 11 11 11 10 10 10 9 9 9 9
16 16 16 16 16 16 15 15 15 15 15 15 14 13 13 13 13 12 12 12 12 11 11 11 11 11 11 11 10 10 10 10 9 9 9 9 8 8
16 15 15 15 15 15 15 15 15 15 14 14 14 13 13 12 12 12 11 11 11 11 11 10 10 10 10 10 10 9 9 9 9 8 8 8 8 7
15 15 15 15 15 15 15 14 14 14 14 14 13 13 12 12 12 11 11 11 10 10 10 10 10 9 9 9 9 9 9 8 8 8 8 7 7 7
15 15 15 14 14 14 14 14 14 14 13 13 13 12 12 12 11 11 11 10 9 9 9 9 9 9 9 9 8 8 8 8 8 7 7 7 7 6
15 14 14 14 14 14 14 14 13 13 13 13 13 12 12 12 11 11 10 10 10 9 9 9 8 8 8 8 8 8 7 7 7 7 7 6 6 6
14 14 14 14 13 13 13 13 13 13 12 12 12 12 11 11 11 11 10 10 9 9 9 8 8 8 8 8 7 7 7 7 7 6 6 6 6 6
14 13 13 13 13 13 13 12 12 12 12 11 11 11 11 10 10 10 10 9 9 9 8 8 8 8 8 7 7 7 7 7 6 6 6 6 6 5
13 13 13 12 12 12 12 12 12 12 11 11 11 10 10 10 10 10 10 9 9 8 8 8 8 8 7 7 7 7 6 6 6 6 6 6 5 5
13 12 12 12 12 12 11 11 11 11 11 10 10 10 10 10 9 9 9 9 9 9 8 8 8 8 7 7 7 7 6 6 6 6 6 6 6 5
12 12 11 11 11 11 11 11 10 10 10 10 10 9 9 9 9 9 9 9 8 8 8 8 8 8 7 7 7 7 6 6 6 6 6 6 6 5
12 11 11 11 11 10 10 10 10 10 9 9 9 9 9 9 8 8 8 8 8 8 8 7 7 7 7 7 7 7 6 6 6 6 6 6 5 5
11 11 10 10 10 10 9 9 9 9 9 9 9 8 8 8 8 8 8 8 8 7 7 7 7 7 7 7 7 6 6 6 6 6 5 5 5 5
10 10 10 10 9 9 9 8 8 8 8 8 8 8 8 8 8 8 7 7 7 7 7 7 7 7 7 6 6 6 6 6 6 6 5 5 5 5
10 10 10 9 9 9 8 8 8 8 8 8 8 8 8 7 7 7 7 7 7 7 7 7 6 6 6 6 6 6 6 6 6 6 5 5 5 5
9 9 9 9 9 8 8 8 8 8 8 7 7 7 7 7 7 7 7 7 7 7 7 6 6 6 6 6 6 6 6 6 6 6 6 6 6 6
9 9 9 8 8 8 8 8 7 7 7 7 7 7 7 7 7 7 7 7 7 7 6 6 6 6 6 6 6 6 6 6 6 6 6 6 6 6
9 9 8 8 8 8 8 7 7 7 7 7 7 7 7 7 7 7 7 7 7 6 6 6 6 6 6 6 6 6 6 6 6 6 6 6 6 6
9 8 8 8 8 7 7 7 7 7 7 7 7 7 7 7 7 7 7 7 6 6 6 6 6 6 6 6 6 6 6 6 6 6 6 6 6 5
8 8 8 8 7 7 7 7 7 7 7 7 7 7 7 7 6 6 6 6 6 6 6 6 6 6 6 6 6 6 6 6 6 6 6 6 6 6
Wind_Speed
3 3 2 2 3 3 4 5 5 3 2 2 2 1 4 5 5 6 7 10 10 11 10 10 11 10 10 9 8 9 9 9 9 8 8 8 7 7
2 2 2 2 2 3 3 4 4 4 3 2 2 2 5 6 7 8 8 10 10 11 11 11 11 10 10 9 10 10 10 11 10 10 9 8 8 8
2 2 2 2 2 2 3 3 3 4 3 1 1 2 3 4 7 8 8 8 9 10 11 10 10 10 10 11 11 11 12 11 11 10 10 10 9 9
1 1 2 1 2 1 2 3 3 4 5 4 2 2 3 5 6 7 7 7 8 9 10 10 10 11 11 12 12 12 11 11 10 10 10 10 9 9
1 2 2 2 1 1 2 2 3 3 4 6 4 2 2 4 5 6 6 6 7 8 9 9 10 11 12 12 12 11 11 11 10 10 9 8 8 8
0 1 1 2 2 2 2 3 4 4 5 6 5 3 3 3 4 5 4 2 3 5 7 8 9 9 9 10 10 10 9 9 9 8 8 7 6 5
2 2 2 2 3 2 3 3 5 5 5 5 5 4 4 4 4 3 4 3 2 2 3 4 5 5 5 6 7 8 8 8 7 6 6 5 4 3
3 3 3 4 5 6 5 5 6 6 6 5 4 5 5 4 4 5 4 3 2 2 3 1 2 2 2 4 7 8 8 7 6 5 4 3 2 1
3 3 4 5 6 6 8 8 6 5 6 6 6 5 5 6 6 5 4 3 2 3 3 2 1 1 4 5 7 7 7 7 6 5 4 3 2 2
4 4 4 4 4 6 7 7 6 5 4 4 4 4 5 6 7 6 6 4 3 2 3 2 2 2 3 4 7 8 8 7 6 6 5 5 5 5
4 4 4 4 5 7 8 7 6 5 8 9 9 8 8 10 10 6 5 5 2 0 1 3 2 1 1 2 7 8 9 8 8 8 8 7 7 6
4 4 5 5 6 7 6 7 6 4 5 6 7 8 8 8 8 6 6 5 3 2 2 3 3 2 1 1 3 6 7 8 8 9 9 9 7 6
3 3 2 5 6 6 6 5 6 5 5 6 5 5 5 4 4 4 5 5 4 2 4 4 3 2 3 1 1 3 5 5 6 7 8 9 9 7
4 2 2 5 7 6 5 6 8 7 5 5 4 3 3 2 2 4 5 5 4 4 6 6 3 4 3 2 1 1 2 4 5 5 7 8 8 9
4 5 6 7 6 5 5 6 5 4 4 4 3 1 1 1 2 3 4 6 6 5 4 4 4 4 3 3 2 1 1 2 4 4 5 6 6 5
4 5 6 6 5 4 3 3 2 3 3 3 2 1 1 2 2 2 2 2 2 3 3 3 4 5 3 2 3 2 2 2 2 3 3 4 7 8
5 3 2 2 2 2 2 2 2 2 2 2 3 2 2 2 1 1 2 2 2 1 1 2 2 2 3 4 2 2 2 2 3 3 2 2 4 8
5 3 2 2 2 2 2 1 1 1 2 3 3 3 3 2 2 1 2 2 2 1 1 0 1 2 3 2 3 4 3 3 3 2 3 2 4 6
4 3 3 3 2 2 2 2 2 2 2 3 3 3 3 2 2 2 2 2 2 2 2 1 2 3 2 1 4 4 5 3 2 2 3 4 5 6
2 3 3 3 3 3 3 2 2 2 2 2 2 3 3 3 2 2 3 3 3 2 1 1 2 4 5 4 3 3 6 5 4 3 3 3 4 8
3 3 3 3 3 3 3 3 3 3 3 3 2 3 3 3 3 3 3 4 3 3 3 4 4 5 3 2 1 3 4 7 8 6 4 2 3 3
4 4 4 4 4 4 3 3 3 3 3 3 3 3 3 3 3 3 3 3 3 4 4 3 1 2 2 2 3 4 4 5 7 8 10 9 5 4
4 4 4 4 4 4 4 4 4 4 4 4 4 3 3 3 3 3 3 3 3 3 3 2 1 1 2 3 3 3 4 4 3 3 5 11 13 16
Wind_Direction
214 210 216 223 197 191 182 171 170 197 227 210 192 131 127 124 134 140 142 144 146 141 137 135 132 128 123 122 119 120 118 112 109 108 110 108 103 99
218 203 210 223 206 186 186 187 179 182 207 205 192 156 134 131 125 121 129 133 136 137 135 132 131 130 128 125 122 121 117 114 111 108 107 106 101 99
242 207 221 204 204 205 190 189 182 167 178 189 138 135 130 130 118 116 118 118 121 127 129 130 131 131 129 128 126 124 122 118 115 111 108 103 99 97
236 210 231 198 189 201 183 183 182 169 160 163 156 146 135 139 127 120 116 115 116 123 130 134 136 137 134 131 129 128 126 123 119 114 110 106 103 99
197 192 207 169 187 194 175 166 163 150 140 151 155 134 122 132 122 114 109 107 113 118 122 130 136 135 132 130 128 128 127 125 123 119 116 112 108 101
119 154 165 166 187 175 158 152 143 137 134 142 143 138 129 127 129 130 120 100 110 115 116 121 126 129 134 136 135 134 132 131 130 128 124 120 115 111
68 63 76 108 134 151 155 154 146 142 139 141 142 140 144 150 154 143 136 123 80 115 115 119 122 124 140 148 150 149 146 146 144 142 138 134 125 116
84 66 64 67 80 87 103 122 137 146 153 149 151 159 164 154 141 143 143 141 164 175 131 129 135 147 187 180 168 162 161 160 160 160 158 161 162 179
77 72 73 68 74 83 79 79 87 118 141 152 157 166 166 167 154 153 156 146 164 171 135 159 168 185 217 192 184 183 183 185 187 191 198 211 231 265
69 77 89 75 78 95 92 78 65 59 85 115 145 156 158 162 164 160 152 121 84 94 146 161 187 205 219 213 210 208 209 211 216 225 234 241 251 263
65 66 84 87 91 101 101 95 80 62 72 92 101 113 130 143 143 129 130 130 115 164 164 152 174 175 191 236 229 223 225 228 234 240 247 256 263 271
67 57 67 91 101 105 112 115 109 98 93 87 82 82 94 116 137 149 155 150 137 165 203 154 154 144 164 261 232 227 232 242 248 253 256 259 264 268
102 75 62 94 103 103 106 115 126 120 102 98 89 75 71 76 90 128 151 151 150 180 192 155 148 143 147 186 276 233 226 241 252 258 262 262 264 254
127 116 100 105 105 103 100 111 111 103 98 95 94 91 89 83 78 97 111 118 131 157 170 159 148 157 143 131 235 281 243 238 239 251 267 276 273 264
126 125 112 102 96 94 100 106 101 100 106 110 117 130 145 129 100 85 79 84 81 92 124 142 139 140 138 156 175 194 235 256 239 239 261 265 262 262
112 111 100 90 81 80 84 81 94 129 139 150 156 143 106 100 105 111 111 92 72 22 31 95 134 139 146 152 158 182 200 224 238 235 251 270 271 261
122 98 89 91 84 72 66 67 84 110 134 146 141 133 124 124 135 129 125 114 119 152 325 350 57 127 164 162 156 193 205 231 232 216 213 265 269 269
123 132 148 153 158 154 138 117 104 139 160 150 143 151 160 170 167 133 125 137 152 180 206 252 56 44 30 346 203 183 203 226 238 225 200 222 267 274
128 154 168 171 175 174 167 161 173 180 162 149 152 162 162 164 160 158 157 158 174 195 210 181 140 127 126 286 293 216 193 218 222 236 224 212 237 258
164 171 179 178 178 179 179 175 171 159 152 155 163 172 172 169 172 176 177 177 178 182 199 207 188 177 184 203 234 262 225 199 202 222 238 242 259 276
183 177 183 187 188 189 188 184 181 179 175 169 172 176 177 171 184 196 195 190 176 177 196 225 235 211 161 110 344 292 274 246 223 209 210 229 275 295
186 187 192 198 196 191 189 189 190 191 185 182 187 187 183 174 184 192 193 189 191 194 207 232 233 132 141 180 229 256 281 298 292 264 243 229 199 222
198 197 200 203 199 191 188 197 199 203 200 192 189 189 184 185 195 194 196 193 186 192 197 212 210 178 207 211 226 244 263 281 298 312 292 281 262 258
Height
1551 1551 1551 1552 1553 1553 1554 1555 1556 1555 1555 1556 1557 1557 1557 1558 1559 1559 1559 1560 1561 1561 1562 1563 1563 1564 1564 1565 1565 1566 1566 1566 1566 1566 1566 1566 1566 1566
1547 1548 1548 1548 1549 1549 1550 1550 1551 1552 1551 1552 1553 1554 1555 1555 1556 1557 1557 1558 1558 1559 1559 1560 1561 1562 1562 1563 1563 1563 1563 1563 1564 1564 1564 1564 1564 1564
1544 1544 1544 1545 1545 1545 1546 1546 1547 1548 1547 1548 1550 1551 1552 1552 1553 1554 1555 1555 1556 1557 1557 1558 1559 1560 1560 1560 1561 1561 1561 1561 1561 1562 1562 1562 1562 1561
1541 1541 1541 1541 1541 1541 1542 1542 1543 1543 1544 1544 1546 1547 1549 1550 1550 1551 1552 1553 1554 1555 1556 1556 1557 1558 1558 1559 1559 1559 1559 1559 1560 1560 1560 1560 1560 1560
1538 1538 1538 1538 1538 1538 1538 1538 1539 1540 1541 1541 1542 1544 1546 1547 1548 1549 1550 1551 1552 1553 1554 1555 1555 1556 1556 1557 1557 1558 1558 1558 1558 1558 1558 1558 1558 1558
1536 1536 1536 1536 1535 1535 1536 1536 1536 1536 1537 1538 1539 1541 1542 1544 1545 1546 1547 1548 1549 1551 1551 1552 1553 1554 1555 1555 1556 1556 1556 1557 1557 1557 1557 1557 1557 1557
1534 1534 1534 1533 1533 1533 1533 1533 1533 1533 1534 1535 1536 1537 1539 1540 1542 1543 1544 1546 1547 1549 1549 1550 1551 1552 1553 1554 1554 1555 1555 1556 1556 1556 1556 1556 1556 1556
1532 1532 1532 1531 1531 1531 1531 1531 1532 1532 1532 1532 1533 1535 1536 1538 1539 1541 1542 1543 1544 1547 1548 1549 1550 1551 1552 1553 1553 1554 1554 1555 1555 1555 1555 1555 1555 1555
1531 1531 1530 1530 1530 1530 1530 1530 1530 1531 1531 1532 1532 1533 1535 1536 1537 1539 1541 1542 1543 1545 1547 1547 1549 1550 1551 1552 1553 1554 1554 1554 1555 1554 1554 1554 1554 1554
1531 1531 1530 1530 1529 1529 1529 1529 1529 1530 1530 1531 1532 1532 1533 1535 1536 1538 1539 1541 1542 1544 1546 1546 1548 1549 1550 1551 1552 1552 1553 1553 1554 1554 1554 1554 1554 1554
1530 1530 1530 1529 1529 1529 1529 1528 1529 1529 1530 1530 1531 1532 1533 1534 1536 1537 1538 1539 1540 1542 1544 1545 1546 1548 1549 1550 1550 1551 1551 1552 1552 1552 1552 1553 1553 1553
1529 1529 1529 1529 1529 1529 1529 1528 1528 1529 1530 1530 1531 1532 1533 1534 1535 1537 1538 1538 1539 1541 1542 1543 1544 1546 1547 1548 1548 1549 1550 1550 1551 1551 1551 1551 1551 1551
1528 1528 1529 1529 1529 1529 1529 1529 1529 1529 1530 1530 1531 1532 1533 1534 1535 1536 1537 1538 1539 1539 1541 1541 1542 1544 1545 1546 1547 1547 1548 1548 1549 1549 1549 1549 1549 1549
1528 1528 1528 1529 1529 1529 1529 1529 1529 1530 1530 1531 1531 1532 1533 1534 1535 1536 1537 1538 1539 1540 1540 1541 1541 1542 1543 1544 1545 1546 1547 1547 1547 1547 1547 1547 1547 1547
1528 1528 1528 1529 1529 1529 1529 1530 1530 1530 1531 1531 1532 1532 1533 1534 1535 1536 1536 1537 1538 1539 1539 1540 1541 1541 1542 1543 1544 1545 1545 1546 1546 1546 1545 1545 1545 1544
1527 1527 1528 1528 1529 1529 1529 1530 1530 1531 1532 1532 1533 1533 1534 1535 1535 1536 1536 1537 1538 1538 1539 1539 1540 1541 1541 1542 1543 1543 1544 1544 1544 1544 1544 1543 1543 1542
1526 1527 1527 1527 1528 1528 1529 1530 1530 1531 1532 1532 1533 1533 1534 1535 1535 1536 1536 1537 1537 1538 1538 1539 1540 1540 1541 1541 1541 1542 1542 1543 1543 1543 1542 1542 1541 1540
1525 1525 1525 1526 1527 1527 1528 1529 1530 1531 1531 1532 1533 1533 1534 1535 1535 1536 1536 1537 1537 1538 1538 1539 1540 1540 1540 1540 1541 1540 1541 1541 1541 1541 1540 1539 1539 1538
1524 1524 1524 1525 1526 1527 1528 1528 1529 1530 1531 1532 1532 1533 1534 1534 1535 1536 1536 1537 1537 1538 1538 1538 1539 1539 1539 1539 1539 1540 1539 1539 1539 1538 1538 1537 1536 1536
1522 1522 1523 1524 1524 1526 1526 1527 1528 1529 1530 1531 1532 1532 1533 1534 1534 1535 1535 1536 1536 1537 1537 1537 1537 1537 1537 1538 1538 1538 1538 1537 1537 1536 1536 1535 1534 1534
1520 1520 1521 1522 1523 1524 1525 1526 1527 1528 1529 1530 1530 1531 1532 1533 1533 1534 1534 1535 1535 1535 1536 1536 1536 1537 1537 1537 1537 1536 1536 1535 1535 1534 1533 1532 1531 1530
1518 1518 1519 1520 1521 1522 1523 1524 1525 1526 1527 1528 1529 1529 1530 1531 1532 1532 1533 1533 1533 1534 1534 1535 1535 1535 1535 1535 1534 1534 1533 1533 1533 1532 1531 1530 1528 1526
1516 1516 1517 1518 1519 1520 1521 1522 1523 1524 1525 1526 1526 1527 1528 1529 1529 1530 1530 1531 1531 1532 1532 1532 1533 1533 1532 1532 1532 1531 1531 1530 1530 1529 1528 1527 1527 1525